Time,TemperatureF,DewpointF,PressureIn,WindDirection,WindDirectionDegrees,WindSpeedMPH,WindSpeedGustMPH,Humidity,HourlyPrecipIn,Conditions,Clouds,dailyrainin,SolarRadiationWatts/m^2,SoftwareType,DateUTC
2013-02-08 00:01:00,27.0,20.0,29.87,NNE,26,7.0,9.0,76,-99.99,,,-99.99,0.000000,,2013-02-08 07:01:00,
2013-02-08 00:11:00,27.0,20.0,29.87,NNE,23,6.0,7.0,76,-99.99,,,-99.99,0.000000,,2013-02-08 07:11:00,
2013-02-08 00:21:00,27.0,21.0,29.87,NNE,30,6.0,7.0,75,-99.99,,,-99.99,-0.100000,,2013-02-08 07:21:00,
2013-02-08 00:31:00,27.0,20.0,29.87,NNE,30,6.0,7.0,75,-99.99,,,-99.99,0.000000,,2013-02-08 07:31:00,
2013-02-08 00:41:00,27.0,20.0,29.87,NNE,22,6.0,8.0,75,-99.99,,,-99.99,-0.100000,,2013-02-08 07:41:00,
2013-02-08 00:51:00,27.0,20.0,29.87,NNE,17,7.0,8.0,73,-99.99,,,-99.99,-0.100000,,2013-02-08 07:51:00,
2013-02-08 01:01:00,27.0,20.0,29.86,NNE,17,7.0,8.0,72,-99.99,,,-99.99,0.000000,,2013-02-08 08:01:00,
2013-02-08 01:11:00,27.0,19.0,29.86,NNE,20,7.0,10.0,70,-99.99,,,-99.99,-0.100000,,2013-02-08 08:11:00,
2013-02-08 01:21:00,27.0,19.0,29.86,NNE,21,9.0,11.0,71,-99.99,,,-99.99,-0.100000,,2013-02-08 08:21:00,
2013-02-08 01:32:00,27.0,19.0,29.85,NNE,18,9.0,11.0,70,-99.99,,,-99.99,0.000000,,2013-02-08 08:32:00,
2013-02-08 01:41:00,28.0,19.0,29.85,NNE,17,9.0,11.0,69,-99.99,,,-99.99,-0.100000,,2013-02-08 08:41:00,
2013-02-08 01:52:00,28.0,19.0,29.85,NNE,23,9.0,11.0,70,-99.99,,,-99.99,-0.100000,,2013-02-08 08:52:00,
2013-02-08 02:02:00,28.0,19.0,29.85,NNE,21,8.0,10.0,69,-99.99,,,-99.99,0.000000,,2013-02-08 09:02:00,
2013-02-08 02:11:00,27.0,19.0,29.85,NNE,17,10.0,13.0,69,-99.99,,,-99.99,0.000000,,2013-02-08 09:11:00,
2013-02-08 02:21:00,27.0,19.0,29.85,North,10,8.0,11.0,69,-99.99,,,-99.99,-0.100000,,2013-02-08 09:21:00,
2013-02-08 02:31:00,27.0,18.0,29.85,NNE,19,8.0,13.0,68,-99.99,,,-99.99,0.000000,,2013-02-08 09:31:00,
2013-02-08 02:41:00,28.0,18.0,29.85,NNE,29,8.0,11.0,66,-99.99,,,-99.99,-0.100000,,2013-02-08 09:41:00,
2013-02-08 02:51:00,28.0,18.0,29.85,NNE,17,7.0,10.0,66,-99.99,,,-99.99,0.000000,,2013-02-08 09:51:00,
2013-02-08 03:01:00,28.0,18.0,29.85,NNE,14,8.0,10.0,66,-99.99,,,-99.99,-0.100000,,2013-02-08 10:01:00,
2013-02-08 03:11:00,28.0,18.0,29.85,NNE,16,8.0,11.0,66,-99.99,,,-99.99,-0.100000,,2013-02-08 10:11:00,
2013-02-08 03:21:00,28.0,18.0,29.85,NNE,30,8.0,10.0,66,-99.99,,,-99.99,0.000000,,2013-02-08 10:21:00,
2013-02-08 03:31:00,28.0,18.0,29.85,NNE,27,5.0,7.0,67,-99.99,,,-99.99,0.000000,,2013-02-08 10:31:00,
2013-02-08 03:41:00,27.0,19.0,29.84,NNE,21,5.0,7.0,68,-99.99,,,-99.99,0.000000,,2013-02-08 10:41:00,
2013-02-08 03:51:00,27.0,18.0,29.85,NE,43,4.0,6.0,68,-99.99,,,-99.99,0.000000,,2013-02-08 10:51:00,
2013-02-08 04:01:00,27.0,18.0,29.84,NE,41,6.0,7.0,68,-99.99,,,-99.99,-0.100000,,2013-02-08 11:01:00,
2013-02-08 04:11:00,27.0,19.0,29.84,NNE,24,6.0,7.0,70,-99.99,,,-99.99,-0.200000,,2013-02-08 11:11:00,
2013-02-08 04:21:00,27.0,18.0,29.84,NE,44,6.0,8.0,69,-99.99,,,-99.99,-0.100000,,2013-02-08 11:21:00,
2013-02-08 04:32:00,27.0,18.0,29.84,NNE,21,4.0,6.0,68,-99.99,,,-99.99,-0.200000,,2013-02-08 11:32:00,
2013-02-08 04:41:00,27.0,18.0,29.84,NNE,17,7.0,10.0,68,-99.99,,,-99.99,0.100000,,2013-02-08 11:41:00,
2013-02-08 04:52:00,27.0,18.0,29.83,NNE,23,7.0,10.0,68,-99.99,,,-99.99,0.000000,,2013-02-08 11:52:00,
2013-02-08 05:01:00,27.0,18.0,29.83,NE,35,7.0,9.0,68,-99.99,,,-99.99,0.000000,,2013-02-08 12:01:00,
2013-02-08 05:11:00,27.0,18.0,29.83,ENE,60,5.0,7.0,67,-99.99,,,-99.99,-0.100000,,2013-02-08 12:11:00,
2013-02-08 05:21:00,27.0,18.0,29.83,ENE,69,6.0,8.0,68,-99.99,,,-99.99,0.000000,,2013-02-08 12:21:00,
2013-02-08 05:32:00,27.0,18.0,29.83,NE,51,6.0,8.0,69,-99.99,,,-99.99,0.000000,,2013-02-08 12:32:00,
2013-02-08 05:41:00,27.0,19.0,29.82,NNE,31,8.0,11.0,68,-99.99,,,-99.99,-0.100000,,2013-02-08 12:41:00,
2013-02-08 05:52:00,27.0,18.0,29.81,NNE,29,9.0,11.0,67,-99.99,,,-99.99,0.000000,,2013-02-08 12:52:00,
2013-02-08 06:01:00,28.0,18.0,29.81,NNE,32,9.0,13.0,66,-99.99,,,-99.99,-0.100000,,2013-02-08 13:01:00,
2013-02-08 06:11:00,28.0,18.0,29.81,NE,44,10.0,14.0,65,-99.99,,,-99.99,-0.100000,,2013-02-08 13:11:00,
2013-02-08 06:21:00,27.0,18.0,29.81,NE,43,7.0,9.0,67,-99.99,,,-99.99,0.100000,,2013-02-08 13:21:00,
2013-02-08 06:32:00,27.0,18.0,29.81,NNE,25,9.0,12.0,68,-99.99,,,-99.99,0.000000,,2013-02-08 13:32:00,
2013-02-08 06:42:00,27.0,18.0,29.81,NNE,24,11.0,15.0,67,-99.99,,,-99.99,0.100000,,2013-02-08 13:42:00,
2013-02-08 06:51:00,27.0,18.0,29.80,NNE,23,9.0,12.0,68,-99.99,,,-99.99,-0.100000,,2013-02-08 13:51:00,
2013-02-08 07:01:00,27.0,18.0,29.80,NNE,20,10.0,13.0,67,-99.99,,,-99.99,0.000000,,2013-02-08 14:01:00,
2013-02-08 07:11:00,27.0,18.0,29.80,NNE,17,10.0,15.0,67,-99.99,,,-99.99,-0.100000,,2013-02-08 14:11:00,
2013-02-08 07:21:00,26.0,18.0,29.80,NNE,18,11.0,15.0,68,-99.99,,,-99.99,0.000000,,2013-02-08 14:21:00,
2013-02-08 07:32:00,26.0,17.0,29.80,NNE,21,10.0,14.0,68,-99.99,,,-99.99,0.000000,,2013-02-08 14:32:00,
2013-02-08 07:41:00,26.0,17.0,29.80,NNE,23,11.0,14.0,69,-99.99,,,-99.99,0.400000,,2013-02-08 14:41:00,
2013-02-08 07:52:00,26.0,17.0,29.80,NNE,22,10.0,13.0,70,-99.99,,,-99.99,1.600000,,2013-02-08 14:52:00,
2013-02-08 08:01:00,26.0,17.0,29.80,NNE,18,12.0,16.0,70,-99.99,,,-99.99,3.900000,,2013-02-08 15:01:00,
2013-02-08 08:11:00,26.0,17.0,29.80,NNE,21,11.0,16.0,69,-99.99,,,-99.99,11.200000,,2013-02-08 15:11:00,
2013-02-08 08:21:00,26.0,17.0,29.80,NNE,20,12.0,17.0,69,-99.99,,,-99.99,31.500000,,2013-02-08 15:21:00,
2013-02-08 08:31:00,26.0,17.0,29.80,NNE,21,13.0,17.0,67,-99.99,,,-99.99,50.599998,,2013-02-08 15:31:00,
2013-02-08 08:41:00,27.0,17.0,29.80,NNE,19,13.0,18.0,66,-99.99,,,-99.99,120.099998,,2013-02-08 15:41:00,
2013-02-08 08:51:00,28.0,17.0,29.80,NNE,23,13.0,18.0,62,-99.99,,,-99.99,221.000000,,2013-02-08 15:51:00,
2013-02-08 09:01:00,29.0,17.0,29.79,NNE,26,15.0,19.0,61,-99.99,,,-99.99,206.899994,,2013-02-08 16:01:00,
2013-02-08 09:11:00,29.0,17.0,29.79,NNE,25,15.0,20.0,61,-99.99,,,-99.99,239.100006,,2013-02-08 16:11:00,
2013-02-08 09:21:00,29.0,17.0,29.79,NNE,27,16.0,24.0,61,-99.99,,,-99.99,188.100006,,2013-02-08 16:21:00,
2013-02-08 09:32:00,29.0,17.0,29.79,NNE,32,15.0,19.0,61,-99.99,,,-99.99,179.100006,,2013-02-08 16:32:00,
2013-02-08 09:41:00,29.0,18.0,29.79,NNE,25,13.0,22.0,63,-99.99,,,-99.99,312.899994,,2013-02-08 16:41:00,
2013-02-08 09:51:00,29.0,18.0,29.79,NNE,24,15.0,21.0,62,-99.99,,,-99.99,301.500000,,2013-02-08 16:51:00,
2013-02-08 10:02:00,30.0,18.0,29.78,NNE,20,14.0,20.0,60,-99.99,,,-99.99,191.399994,,2013-02-08 17:02:00,
2013-02-08 10:11:00,30.0,18.0,29.78,NNE,26,16.0,24.0,60,-99.99,,,-99.99,383.799988,,2013-02-08 17:11:00,
2013-02-08 10:21:00,30.0,18.0,29.78,NNE,22,16.0,21.0,60,-99.99,,,-99.99,432.200012,,2013-02-08 17:21:00,
2013-02-08 10:32:00,31.0,20.0,29.78,NNE,27,19.0,28.0,64,-99.99,,,-99.99,456.100006,,2013-02-08 17:32:00,
2013-02-08 10:41:00,31.0,22.0,29.78,NNE,25,15.0,23.0,67,-99.99,,,-99.99,469.000000,,2013-02-08 17:41:00,
2013-02-08 10:52:00,31.0,22.0,29.78,NNE,26,18.0,24.0,68,-99.99,,,-99.99,391.600006,,2013-02-08 17:52:00,
2013-02-08 11:01:00,31.0,23.0,29.78,NNE,26,14.0,22.0,70,-99.99,,,-99.99,472.299988,,2013-02-08 18:01:00,
2013-02-08 11:11:00,32.0,24.0,29.77,NNE,25,15.0,20.0,71,-99.99,,,-99.99,444.100006,,2013-02-08 18:11:00,
2013-02-08 11:23:00,32.0,24.0,29.77,NNE,25,16.0,20.0,71,-99.99,,,-99.99,290.399994,,2013-02-08 18:23:00,
2013-02-08 11:32:00,33.0,24.0,29.77,NNE,29,14.0,19.0,68,-99.99,,,-99.99,235.199997,,2013-02-08 18:32:00,
2013-02-08 11:41:00,33.0,23.0,29.77,NNE,25,13.0,18.0,67,-99.99,,,-99.99,210.399994,,2013-02-08 18:41:00,
2013-02-08 11:52:00,33.0,23.0,29.76,NNE,25,15.0,20.0,67,-99.99,,,-99.99,205.699997,,2013-02-08 18:52:00,
2013-02-08 12:01:00,33.0,23.0,29.76,NNE,31,13.0,17.0,66,-99.99,,,-99.99,226.399994,,2013-02-08 19:01:00,
2013-02-08 12:11:00,33.0,23.0,29.76,NNE,32,12.0,18.0,66,-99.99,,,-99.99,233.800003,,2013-02-08 19:11:00,
2013-02-08 12:21:00,33.0,23.0,29.76,NNE,32,11.0,17.0,66,-99.99,,,-99.99,237.000000,,2013-02-08 19:21:00,
2013-02-08 12:32:00,33.0,24.0,29.76,NE,35,12.0,17.0,66,-99.99,,,-99.99,237.899994,,2013-02-08 19:32:00,
2013-02-08 12:41:00,34.0,24.0,29.76,NE,35,11.0,15.0,66,-99.99,,,-99.99,211.399994,,2013-02-08 19:41:00,
2013-02-08 12:51:00,34.0,24.0,29.76,NE,50,7.0,10.0,67,-99.99,,,-99.99,199.199997,,2013-02-08 19:51:00,
2013-02-08 13:01:00,34.0,24.0,29.75,NE,46,8.0,11.0,67,-99.99,,,-99.99,250.800003,,2013-02-08 20:01:00,
2013-02-08 13:11:00,34.0,24.0,29.75,NE,40,10.0,14.0,66,-99.99,,,-99.99,250.699997,,2013-02-08 20:11:00,
2013-02-08 13:21:00,34.0,24.0,29.74,NE,36,11.0,16.0,65,-99.99,,,-99.99,231.199997,,2013-02-08 20:21:00,
2013-02-08 13:31:00,34.0,24.0,29.74,NE,38,12.0,16.0,66,-99.99,,,-99.99,187.300003,,2013-02-08 20:31:00,
2013-02-08 13:41:00,34.0,25.0,29.74,NE,43,12.0,15.0,68,-99.99,,,-99.99,160.300003,,2013-02-08 20:41:00,
2013-02-08 13:52:00,34.0,25.0,29.74,NE,47,11.0,15.0,68,-99.99,,,-99.99,142.300003,,2013-02-08 20:52:00,
2013-02-08 14:01:00,34.0,25.0,29.74,NNE,30,11.0,15.0,68,-99.99,,,-99.99,109.900002,,2013-02-08 21:01:00,
2013-02-08 14:11:00,34.0,25.0,29.74,NE,36,11.0,14.0,68,-99.99,,,-99.99,87.800003,,2013-02-08 21:11:00,
2013-02-08 14:21:00,33.0,26.0,29.73,NE,40,9.0,12.0,74,-99.99,,,-99.99,74.800003,,2013-02-08 21:21:00,
2013-02-08 14:32:00,32.0,26.0,29.73,NNE,27,9.0,12.0,76,-99.99,,,-99.99,88.000000,,2013-02-08 21:32:00,
2013-02-08 14:41:00,32.0,26.0,29.73,NNE,28,10.0,14.0,77,-99.99,,,-99.99,88.599998,,2013-02-08 21:41:00,
2013-02-08 14:52:00,32.0,27.0,29.73,NE,36,9.0,12.0,84,-99.99,,,-99.99,69.199997,,2013-02-08 21:52:00,
2013-02-08 15:01:00,31.0,28.0,29.72,NE,43,9.0,11.0,87,-99.99,,,-99.99,49.299999,,2013-02-08 22:01:00,
2013-02-08 15:11:00,31.0,28.0,29.73,NE,40,8.0,11.0,89,-99.99,,,-99.99,39.900002,,2013-02-08 22:11:00,
2013-02-08 15:21:00,31.0,29.0,29.73,NE,36,7.0,10.0,90,-99.99,,,-99.99,40.299999,,2013-02-08 22:21:00,
2013-02-08 15:31:00,31.0,29.0,29.73,NNE,30,6.0,8.0,91,-99.99,,,-99.99,51.000000,,2013-02-08 22:31:00,
2013-02-08 15:41:00,32.0,29.0,29.73,NNE,25,6.0,8.0,91,-99.99,,,-99.99,55.500000,,2013-02-08 22:41:00,
2013-02-08 15:51:00,32.0,30.0,29.73,NNE,22,6.0,8.0,92,-99.99,,,-99.99,43.799999,,2013-02-08 22:51:00,
2013-02-08 16:01:00,32.0,30.0,29.73,NNE,21,7.0,11.0,92,-99.99,,,-99.99,42.200001,,2013-02-08 23:01:00,
2013-02-08 16:11:00,31.0,29.0,29.73,NE,51,6.0,8.0,92,-99.99,,,-99.99,42.299999,,2013-02-08 23:11:00,
2013-02-08 16:21:00,31.0,29.0,29.73,NE,48,6.0,8.0,92,-99.99,,,-99.99,39.500000,,2013-02-08 23:21:00,
2013-02-08 16:31:00,31.0,29.0,29.73,NE,56,7.0,8.0,92,-99.99,,,-99.99,34.599998,,2013-02-08 23:31:00,
2013-02-08 16:41:00,31.0,29.0,29.73,ENE,57,6.0,9.0,92,-99.99,,,-99.99,36.700001,,2013-02-08 23:41:00,
2013-02-08 16:52:00,31.0,29.0,29.73,NE,49,5.0,7.0,92,-99.99,,,-99.99,37.299999,,2013-02-08 23:52:00,
2013-02-08 17:01:00,31.0,29.0,29.73,NE,45,6.0,7.0,92,-99.99,,,-99.99,28.200001,,2013-02-09 00:01:00,
2013-02-08 17:11:00,31.0,29.0,29.72,NNE,26,6.0,8.0,92,-99.99,,,-99.99,22.500000,,2013-02-09 00:11:00,
2013-02-08 17:21:00,31.0,29.0,29.72,NNE,27,6.0,8.0,92,-99.99,,,-99.99,17.400000,,2013-02-09 00:21:00,
2013-02-08 17:31:00,31.0,29.0,29.72,NNE,18,5.0,6.0,93,-99.99,,,-99.99,12.700000,,2013-02-09 00:31:00,
2013-02-08 17:41:00,31.0,29.0,29.72,North,9,6.0,11.0,93,-99.99,,,-99.99,10.900000,,2013-02-09 00:41:00,
2013-02-08 17:51:00,31.0,29.0,29.72,NNE,14,7.0,11.0,93,-99.99,,,-99.99,8.300000,,2013-02-09 00:51:00,
2013-02-08 18:01:00,31.0,29.0,29.72,North,3,7.0,9.0,93,-99.99,,,-99.99,4.100000,,2013-02-09 01:01:00,
2013-02-08 18:11:00,31.0,29.0,29.72,North,4,8.0,10.0,92,-99.99,,,-99.99,1.100000,,2013-02-09 01:11:00,
2013-02-08 18:21:00,31.0,29.0,29.72,North,0,6.0,8.0,92,-99.99,,,-99.99,0.300000,,2013-02-09 01:21:00,
2013-02-08 18:31:00,31.0,29.0,29.71,North,1,7.0,10.0,92,-99.99,,,-99.99,0.100000,,2013-02-09 01:31:00,
2013-02-08 18:41:00,31.0,29.0,29.72,North,11,6.0,9.0,92,-99.99,,,-99.99,-0.100000,,2013-02-09 01:41:00,
2013-02-08 18:51:00,31.0,29.0,29.72,NNE,23,5.0,7.0,91,-99.99,,,-99.99,-0.100000,,2013-02-09 01:51:00,
2013-02-08 19:01:00,31.0,28.0,29.72,NNE,25,5.0,8.0,90,-99.99,,,-99.99,0.000000,,2013-02-09 02:01:00,
2013-02-08 19:11:00,31.0,28.0,29.72,NE,51,4.0,6.0,88,-99.99,,,-99.99,-0.100000,,2013-02-09 02:11:00,
2013-02-08 19:21:00,30.0,27.0,29.72,ENE,75,4.0,5.0,88,-99.99,,,-99.99,-0.100000,,2013-02-09 02:21:00,
2013-02-08 19:31:00,30.0,27.0,29.72,ESE,117,4.0,5.0,89,-99.99,,,-99.99,-0.100000,,2013-02-09 02:31:00,
2013-02-08 19:41:00,29.0,27.0,29.72,East,98,3.0,4.0,90,-99.99,,,-99.99,0.000000,,2013-02-09 02:41:00,
2013-02-08 19:52:00,28.0,26.0,29.72,NE,54,3.0,5.0,91,-99.99,,,-99.99,-0.100000,,2013-02-09 02:52:00,
2013-02-08 20:01:00,30.0,27.0,29.72,ENE,61,4.0,5.0,91,-99.99,,,-99.99,0.000000,,2013-02-09 03:01:00,
2013-02-08 20:11:00,30.0,27.0,29.72,ENE,60,4.0,5.0,89,-99.99,,,-99.99,0.000000,,2013-02-09 03:11:00,
2013-02-08 20:21:00,30.0,27.0,29.72,NE,40,4.0,5.0,88,-99.99,,,-99.99,0.000000,,2013-02-09 03:21:00,
2013-02-08 20:31:00,30.0,27.0,29.72,NE,53,3.0,3.0,87,-99.99,,,-99.99,0.000000,,2013-02-09 03:31:00,
2013-02-08 20:41:00,30.0,26.0,29.72,NE,50,4.0,4.0,86,-99.99,,,-99.99,0.000000,,2013-02-09 03:41:00,
2013-02-08 20:51:00,30.0,26.0,29.71,NE,37,5.0,8.0,86,-99.99,,,-99.99,0.000000,,2013-02-09 03:51:00,
2013-02-08 21:02:00,30.0,26.0,29.71,NNE,26,6.0,8.0,83,-99.99,,,-99.99,0.000000,,2013-02-09 04:02:00,
2013-02-08 21:11:00,31.0,26.0,29.71,NNE,31,6.0,8.0,80,-99.99,,,-99.99,0.000000,,2013-02-09 04:11:00,
2013-02-08 21:22:00,31.0,26.0,29.71,NE,41,6.0,8.0,81,-99.99,,,-99.99,0.000000,,2013-02-09 04:22:00,
2013-02-08 21:31:00,30.0,25.0,29.71,NE,34,6.0,8.0,81,-99.99,,,-99.99,-0.100000,,2013-02-09 04:31:00,
2013-02-08 21:41:00,31.0,25.0,29.71,NE,34,6.0,9.0,79,-99.99,,,-99.99,-0.100000,,2013-02-09 04:41:00,
2013-02-08 21:51:00,31.0,25.0,29.71,NNE,25,6.0,9.0,78,-99.99,,,-99.99,0.000000,,2013-02-09 04:51:00,
2013-02-08 22:02:00,32.0,25.0,29.71,NNE,32,7.0,10.0,75,-99.99,,,-99.99,0.000000,,2013-02-09 05:02:00,
2013-02-08 22:11:00,31.0,24.0,29.71,NE,41,6.0,9.0,75,-99.99,,,-99.99,-0.100000,,2013-02-09 05:11:00,
2013-02-08 22:22:00,30.0,24.0,29.71,NE,49,6.0,8.0,75,-99.99,,,-99.99,0.100000,,2013-02-09 05:22:00,
2013-02-08 22:31:00,29.0,23.0,29.71,ENE,67,6.0,7.0,76,-99.99,,,-99.99,-0.100000,,2013-02-09 05:31:00,
2013-02-08 22:41:00,29.0,22.0,29.71,ENE,62,5.0,6.0,76,-99.99,,,-99.99,-0.100000,,2013-02-09 05:41:00,
2013-02-08 22:51:00,28.0,22.0,29.70,NE,56,5.0,6.0,77,-99.99,,,-99.99,-0.100000,,2013-02-09 05:51:00,
2013-02-08 23:01:00,27.0,21.0,29.70,NE,47,4.0,6.0,76,-99.99,,,-99.99,-0.200000,,2013-02-09 06:01:00,
2013-02-08 23:11:00,27.0,21.0,29.70,NE,36,6.0,9.0,76,-99.99,,,-99.99,-0.100000,,2013-02-09 06:11:00,
2013-02-08 23:21:00,27.0,21.0,29.70,North,11,8.0,10.0,75,-99.99,,,-99.99,-0.100000,,2013-02-09 06:21:00,
2013-02-08 23:31:00,28.0,21.0,29.69,NNE,15,7.0,9.0,74,-99.99,,,-99.99,0.000000,,2013-02-09 06:31:00,
2013-02-08 23:41:00,28.0,21.0,29.69,ENE,59,7.0,9.0,72,-99.99,,,-99.99,0.000000,,2013-02-09 06:41:00,
2013-02-08 23:51:00,28.0,20.0,29.69,East,84,7.0,9.0,73,-99.99,,,-99.99,-0.100000,,2013-02-09 06:51:00,